This is the latest recevied weather packets stored in our database for station/object EA1IOK-1. If no packets are shown the sender has not sent any weather packets the latest 10 day(s).
| Time | Temp. | Humidity | Pressure | Rain* | Wind** | Luminosity | Snow |
|---|---|---|---|---|---|---|---|
| 1777758783 | 13.33° C | 100% | 1013.4 hPa | - | - | - | - |
| 1777757882 | 13.33° C | 100% | 1013.6 hPa | - | - | - | - |
| 1777756982 | 12.78° C | 100% | 1013.6 hPa | - | - | - | - |
| 1777756082 | 13.33° C | 100% | 1013.4 hPa | - | - | - | - |
| 1777755182 | 13.33° C | 100% | 1013.4 hPa | - | - | - | - |
| 1777754280 | 13.33° C | 100% | 1013.3 hPa | - | - | - | - |
| 1777753379 | 13.89° C | 100% | 1013.2 hPa | - | - | - | - |
| 1777752515 | 13.89° C | 100% | 1013.1 hPa | - | - | - | - |
| 1777752478 | 13.89° C | 100% | 1013.1 hPa | - | - | - | - |
| 1777751578 | 13.89° C | 100% | 1012.9 hPa | - | - | - | - |
| 1777750677 | 13.89° C | 100% | 1013 hPa | - | - | - | - |
| 1777749777 | 13.89° C | 100% | 1012.7 hPa | - | - | - | - |
| 1777748876 | 13.89° C | 100% | 1012.5 hPa | - | - | - | - |
| 1777747975 | 14.44° C | 100% | 1012.6 hPa | - | - | - | - |
| 1777747075 | 14.44° C | 100% | 1012.6 hPa | - | - | - | - |
| 1777746174 | 14.44° C | 100% | 1012.5 hPa | - | - | - | - |
| 1777745273 | 15° C | 100% | 1012.5 hPa | - | - | - | - |
| 1777744373 | 15.56° C | 100% | 1012.5 hPa | - | - | - | - |
| 1777743472 | 16.11° C | 100% | 1012.4 hPa | - | - | - | - |
| 1777742572 | 16.67° C | 100% | 1012.3 hPa | - | - | - | - |
| 1777741672 | 17.22° C | 100% | 1012.3 hPa | - | - | - | - |
| 1777740771 | 17.78° C | 100% | 1012.4 hPa | - | - | - | - |
| 1777739870 | 17.78° C | 100% | 1012.3 hPa | - | - | - | - |
| 1777738969 | 17.22° C | 100% | 1012.5 hPa | - | - | - | - |
| 1777738069 | 18.89° C | 100% | 1012.4 hPa | - | - | - | - |
* Rain since midnight (hover to see other rain measurements)
** Current wind speed in m/s (hover to see current wind gust speed)